When you browse on this site, cookies collect data to enhance your experience and personalize the content and advertising you see.
Visit our Privacy Policy to learn more. By continuing to use the site, you agree to this use of cookies and data.
  • In Hungary
  • List of Countries
  • For 7 days
  • Water Temperature
  • Weather Map
  • News
  • Weather Widgets
  • user-avatar
    Login

    Hourly Weather Pocatello

    Today, 18 November, Monday

    Time Temperature Precipitation Wind Pressure Humidity
    00:00 +3°C° 0 mm 3 mps 637 mmHg 66%
    01:00 +3°C° 0 mm 3 mps 637 mmHg 67%
    02:00 +2°C° 0 mm 3 mps 637 mmHg 67%
    03:00 +2°C° 0 mm 3 mps 637 mmHg 68%
    04:00 +2°C° 0 mm 3 mps 636 mmHg 69%
    05:00 +2°C° 0 mm 3 mps 636 mmHg 70%
    06:00 +2°C° 0 mm 3 mps 636 mmHg 70%
    07:00 +3°C° 0 mm 2 mps 636 mmHg 69%
    08:00 +3°C° 0 mm 2 mps 636 mmHg 69%
    09:00 +5°C° 0 mm 2 mps 636 mmHg 63%
    10:00 +7°C° 0 mm 2 mps 637 mmHg 57%
    11:00 +9°C° 0 mm 2 mps 637 mmHg 50%
    12:00 +10°C° 0 mm 2 mps 636 mmHg 48%
    13:00 +12°C° 0 mm 2 mps 636 mmHg 46%
    14:00 +13°C° 0 mm 2 mps 636 mmHg 45%
    15:00 +12°C° 0 mm 2 mps 635 mmHg 49%
    16:00 +10°C° 0 mm 2 mps 634 mmHg 53%
    17:00 +8°C° 0 mm 2 mps 634 mmHg 57%
    18:00 +7°C° 0 mm 2 mps 633 mmHg 59%
    19:00 +7°C° 0 mm 3 mps 633 mmHg 61%
    20:00 +5°C° 0 mm 3 mps 632 mmHg 63%
    21:00 +5°C° 0 mm 3 mps 632 mmHg 63%
    22:00 +4°C° 0 mm 3 mps 631 mmHg 63%
    23:00 +4°C° 0 mm 3 mps 631 mmHg 63%

    Tomorrow, 19 November, Tuesday

    Time Temperature Precipitation Wind Pressure Humidity
    00:00 +4°C° 0 mm 3 mps 630 mmHg 63%
    01:00 +4°C° 0 mm 3 mps 630 mmHg 62%
    02:00 +4°C° 0 mm 3 mps 629 mmHg 62%
    03:00 +4°C° 0 mm 3 mps 629 mmHg 62%
    04:00 +4°C° 0 mm 3 mps 628 mmHg 63%
    05:00 +4°C° 0 mm 3 mps 628 mmHg 63%
    06:00 +4°C° 0 mm 3 mps 628 mmHg 63%
    07:00 +4°C° 0 mm 3 mps 628 mmHg 63%
    08:00 +4°C° 0 mm 3 mps 627 mmHg 63%
    09:00 +7°C° 0 mm 3 mps 628 mmHg 57%
    10:00 +9°C° 0 mm 3 mps 628 mmHg 52%
    11:00 +10°C° 0 mm 4 mps 628 mmHg 46%
    12:00 +10°C° 0.1 mm 4 mps 628 mmHg 52%
    13:00 +8°C° 0.1 mm 5 mps 627 mmHg 59%
    14:00 +8°C° 0.1 mm 6 mps 627 mmHg 65%
    15:00 +7°C° 0.1 mm 5 mps 627 mmHg 70%
    16:00 +6°C° 0.1 mm 4 mps 627 mmHg 74%
    17:00 +7°C° 0.1 mm 3 mps 627 mmHg 79%
    18:00 +6°C° 0 mm 2 mps 627 mmHg 82%
    19:00 +5°C° 0 mm 2 mps 627 mmHg 85%
    20:00 +5°C° 0 mm 1 mps 627 mmHg 88%
    21:00 +5°C° 0 mm 1 mps 627 mmHg 85%
    22:00 +4°C° 0 mm 1 mps 627 mmHg 82%
    23:00 +4°C° 0 mm 1 mps 627 mmHg 79%

    Day after tomorrow, 20 November, Wednesday

    Time Temperature Precipitation Wind Pressure Humidity
    00:00 +3°C° 0 mm 1 mps 627 mmHg 77%
    01:00 +3°C° 0 mm 1 mps 627 mmHg 76%
    02:00 +2°C° 0 mm 1 mps 627 mmHg 75%
    03:00 +2°C° 0 mm 1 mps 626 mmHg 78%
    04:00 +1°C° 0 mm 1 mps 626 mmHg 81%
    05:00 +1°C° 0 mm 1 mps 626 mmHg 83%
    06:00 -1°C° 0 mm 2 mps 626 mmHg 83%
    07:00 -1°C° 0 mm 2 mps 626 mmHg 83%
    08:00 -1°C° 0 mm 2 mps 626 mmHg 82%
    09:00 0°C° 0 mm 3 mps 626 mmHg 75%
    10:00 +1°C° 0 mm 4 mps 626 mmHg 68%
    11:00 +2°C° 0 mm 5 mps 626 mmHg 61%
    12:00 +2°C° 0.1 mm 5 mps 626 mmHg 57%
    13:00 +2°C° 0.1 mm 6 mps 626 mmHg 54%
    14:00 +3°C° 0.1 mm 7 mps 626 mmHg 50%
    15:00 +2°C° 0 mm 7 mps 626 mmHg 49%
    16:00 +2°C° 0 mm 7 mps 626 mmHg 48%
    17:00 0°C° 0 mm 7 mps 627 mmHg 46%
    18:00 -1°C° 0 mm 6 mps 627 mmHg 48%
    19:00 -1°C° 0 mm 6 mps 627 mmHg 50%
    20:00 -2°C° 0 mm 6 mps 628 mmHg 52%
    21:00 -1°C° 0 mm 5 mps 628 mmHg 54%
    22:00 -2°C° 0 mm 5 mps 629 mmHg 55%
    23:00 -3°C° 0 mm 4 mps 629 mmHg 57%

    21 November, Thursday

    Time Temperature Precipitation Wind Pressure Humidity
    00:00 -3°C° 0 mm 4 mps 630 mmHg 57%
    01:00 -3°C° 0 mm 4 mps 630 mmHg 58%
    02:00 -4°C° 0 mm 3 mps 630 mmHg 58%
    03:00 -4°C° 0 mm 4 mps 630 mmHg 60%
    04:00 -5°C° 0 mm 4 mps 630 mmHg 63%
    05:00 -5°C° 0 mm 4 mps 630 mmHg 65%
    06:00 -5°C° 0 mm 3 mps 631 mmHg 65%
    07:00 -6°C° 0 mm 3 mps 631 mmHg 66%
    08:00 -6°C° 0 mm 3 mps 631 mmHg 66%
    09:00 -3°C° 0 mm 2 mps 632 mmHg 60%
    10:00 -2°C° 0 mm 2 mps 632 mmHg 54%
    11:00 +1°C° 0 mm 2 mps 633 mmHg 48%
    12:00 +2°C° 0 mm 2 mps 632 mmHg 47%
    13:00 +4°C° 0 mm 1 mps 632 mmHg 45%
    14:00 +5°C° 0 mm 1 mps 632 mmHg 44%
    15:00 +4°C° 0 mm 1 mps 632 mmHg 48%
    16:00 +3°C° 0 mm 1 mps 632 mmHg 52%
    17:00 +1°C° 0 mm 0 mps 632 mmHg 56%
    18:00 +1°C° 0 mm 1 mps 633 mmHg 59%
    19:00 +1°C° 0 mm 1 mps 633 mmHg 62%
    20:00 0°C° 0 mm 1 mps 633 mmHg 65%
    21:00 0°C° 0 mm 1 mps 634 mmHg 66%
    22:00 -1°C° 0 mm 1 mps 634 mmHg 68%
    23:00 -3°C° 0 mm 2 mps 634 mmHg 69%

    22 November, Friday

    Time Temperature Precipitation Wind Pressure Humidity
    00:00 -3°C° 0 mm 2 mps 635 mmHg 70%
    01:00 -2°C° 0 mm 1 mps 635 mmHg 71%
    02:00 -2°C° 0 mm 1 mps 635 mmHg 73%
    03:00 -2°C° 0 mm 1 mps 635 mmHg 74%
    04:00 -3°C° 0 mm 1 mps 636 mmHg 75%
    05:00 -3°C° 0 mm 1 mps 636 mmHg 75%
    06:00 -5°C° 0 mm 2 mps 636 mmHg 76%
    07:00 -5°C° 0 mm 2 mps 637 mmHg 76%
    08:00 -5°C° 0 mm 2 mps 637 mmHg 77%
    09:00 -3°C° 0 mm 2 mps 638 mmHg 68%
    10:00 +1°C° 0 mm 2 mps 638 mmHg 60%
    11:00 +4°C° 0 mm 1 mps 639 mmHg 51%
    12:00 +5°C° 0 mm 1 mps 639 mmHg 48%
    13:00 +5°C° 0 mm 2 mps 639 mmHg 44%
    14:00 +5°C° 0 mm 2 mps 639 mmHg 40%
    15:00 +5°C° 0 mm 1 mps 639 mmHg 45%
    16:00 +4°C° 0 mm 1 mps 638 mmHg 50%
    17:00 +1°C° 0 mm 0 mps 638 mmHg 54%
    18:00 +2°C° 0 mm 1 mps 638 mmHg 60%
    19:00 +1°C° 0 mm 1 mps 639 mmHg 65%
    20:00 -2°C° 0 mm 2 mps 639 mmHg 70%
    21:00 -2°C° 0 mm 2 mps 639 mmHg 73%
    22:00 -2°C° 0 mm 2 mps 639 mmHg 75%
    23:00 -3°C° 0 mm 2 mps 639 mmHg 78%

    23 November, Saturday

    Time Temperature Precipitation Wind Pressure Humidity
    00:00 -3°C° 0 mm 2 mps 639 mmHg 79%
    01:00 -3°C° 0 mm 2 mps 639 mmHg 80%
    02:00 -4°C° 0 mm 2 mps 639 mmHg 81%
    03:00 -4°C° 0 mm 2 mps 639 mmHg 82%
    04:00 -4°C° 0 mm 2 mps 638 mmHg 82%
    05:00 -4°C° 0 mm 2 mps 638 mmHg 83%
    06:00 -4°C° 0 mm 2 mps 638 mmHg 83%
    07:00 -5°C° 0 mm 2 mps 639 mmHg 84%
    08:00 -5°C° 0 mm 2 mps 639 mmHg 84%
    09:00 -2°C° 0 mm 2 mps 639 mmHg 74%
    10:00 +1°C° 0 mm 2 mps 640 mmHg 64%
    11:00 +3°C° 0 mm 2 mps 640 mmHg 55%
    12:00 +4°C° 0 mm 2 mps 640 mmHg 49%
    13:00 +5°C° 0 mm 2 mps 639 mmHg 44%
    14:00 +6°C° 0 mm 2 mps 639 mmHg 39%
    15:00 +5°C° 0 mm 2 mps 638 mmHg 45%
    16:00 +4°C° 0 mm 1 mps 638 mmHg 51%
    17:00 +3°C° 0 mm 1 mps 637 mmHg 57%
    18:00 +1°C° 0 mm 2 mps 637 mmHg 62%
    19:00 -1°C° 0 mm 2 mps 637 mmHg 67%
    20:00 -1°C° 0 mm 2 mps 637 mmHg 73%
    21:00 -2°C° 0 mm 2 mps 637 mmHg 74%
    22:00 -2°C° 0 mm 2 mps 637 mmHg 76%
    23:00 -2°C° 0 mm 2 mps 637 mmHg 78%
    Show more